Location: *
(45.9500°N, 9.0833°E)
Time: 21:25:29
(UTC+00:00)

SAR-Lupe-1 - Pass Details

Date: 03 March 2021
Orbit: 482 x 483 km, 98.2° (Epoch: 30 March)

Event Time Altitude Azimuth Distance (km) Brightness Sun altitude
Rises 18:24:38 0° 12° (NNE) 2,559 7.7 -13.2°
Reaches altitude 10° 18:26:43 10° 12° (NNE) 1,674 6.7 -13.6°
Maximum altitude 18:30:19 82° 284° (WNW) 495 4.1 -14.2°
Drops below altitude 10° 18:33:52 10° 198° (SSW) 1,659 6.9 -14.8°
Sets 18:35:55 0° 197° (SSW) 2,534 7.9 -15.2°
